| time (UTC) | temp F | wind direction | speed MPH | gust MPH | rain 1hr in | rain 24hr in | rain mn in | humidity % | barometer mb |
| 20260904071518 | 76 | 283 | 0.0 | 2.0 | 0.42 | 0.74 | 0.45 | 90 | 1012.9 |
| 20260904070518 | 76 | 232 | 0.0 | 3.0 | 0.38 | 0.68 | 0.39 | 89 | 1012.9 |
| 20260904065538 | 76 | 274 | 0.0 | 3.0 | 0.33 | 0.62 | 0.33 | 89 | 1013.2 |
| 20260904064518 | 75 | 201 | 1.0 | 2.0 | 0.26 | 0.55 | 0.26 | 89 | 1013.4 |
| 20260904063518 | 76 | 251 | 0.0 | 1.0 | 0.17 | 0.46 | 0.17 | 87 | 1013.3 |
| 20260904062518 | 76 | 219 | 1.0 | 3.0 | 0.09 | 0.38 | 0.09 | 88 | 1013.6 |
| 20260904061516 | 78 | 238 | 1.0 | 3.0 | 0.03 | 0.32 | 0.03 | 89 | 1013.5 |
| 20260904060516 | 79 | 205 | 1.0 | 3.0 | 0.01 | 0.31 | 0.01 | 90 | 1013.2 |
| 20260904055516 | 79 | 207 | 0.0 | 2.0 | 0.00 | 0.30 | 0.00 | 90 | 1013.0 |
| 20260904054536 | 79 | 0.0 | 0.0 | 0.00 | 0.30 | 0.00 | 90 | 1013.0 | |
| 20260904053516 | 79 | 250 | 0.0 | 0.0 | 0.00 | 0.30 | 0.00 | 90 | 1012.7 |
| 20260904052516 | 79 | 14 | 0.0 | 1.0 | 0.00 | 0.30 | 0.00 | 90 | 1012.6 |
| 20260904051517 | 79 | 0.0 | 0.0 | 0.00 | 0.30 | 0.00 | 90 | 1012.7 | |
| 20260904050517 | 79 | 0.0 | 0.0 | 0.00 | 0.30 | 0.00 | 90 | 1012.9 | |
| 20260904045517 | 79 | 126 | 0.0 | 1.0 | 0.00 | 0.30 | 0.00 | 90 | 1013.1 |
| 20260904044517 | 79 | 0.0 | 0.0 | 0.00 | 0.30 | 0.00 | 90 | 1012.9 | |
| 20260904043517 | 79 | 56 | 0.0 | 1.0 | 0.00 | 0.30 | 0.00 | 90 | 1012.7 |
| 20260904042517 | 79 | 228 | 0.0 | 1.0 | 0.00 | 0.30 | 0.00 | 89 | 1012.7 |
| 20260904041517 | 79 | 235 | 0.0 | 0.0 | 0.00 | 0.30 | 0.00 | 89 | 1013.2 |
| 20260904040518 | 79 | 247 | 0.0 | 1.0 | 0.00 | 0.30 | 0.00 | 89 | 1013.4 |
| 20260904035518 | 79 | 0.0 | 0.0 | 0.00 | 0.30 | 0.30 | 88 | 1013.6 | |
| 20260904034518 | 79 | 0.0 | 0.0 | 0.00 | 0.30 | 0.30 | 88 | 1013.8 | |
| 20260904033518 | 79 | 230 | 0.0 | 0.0 | 0.00 | 0.30 | 0.30 | 88 | 1014.0 |
| 20260904032519 | 79 | 0.0 | 0.0 | 0.00 | 0.30 | 0.30 | 88 | 1014.0 | |
| 20260904031519 | 79 | 0.0 | 0.0 | 0.00 | 0.30 | 0.30 | 88 | 1014.0 | |
| 20260904030516 | 79 | 20 | 0.0 | 1.0 | 0.00 | 0.30 | 0.30 | 87 | 1013.9 |
| 20260904025516 | 79 | 0.0 | 0.0 | 0.00 | 0.30 | 0.30 | 87 | 1013.9 | |
| 20260904024516 | 79 | 196 | 0.0 | 0.0 | 0.00 | 0.30 | 0.30 | 87 | 1013.8 |
| 20260904023516 | 79 | 0.0 | 0.0 | 0.00 | 0.30 | 0.30 | 87 | 1013.8 | |
| 20260904022536 | 79 | 127 | 0.0 | 1.0 | 0.00 | 0.30 | 0.30 | 87 | 1013.8 |
| 20260904021557 | 79 | 176 | 0.0 | 0.0 | 0.00 | 0.30 | 0.30 | 87 | 1013.8 |
| 20260904020517 | 79 | 241 | 0.0 | 0.0 | 0.00 | 0.30 | 0.30 | 86 | 1014.0 |
| 20260904015517 | 79 | 0.0 | 0.0 | 0.00 | 0.30 | 0.30 | 86 | 1014.2 | |
| 20260904014517 | 79 | 352 | 0.0 | 1.0 | 0.00 | 0.30 | 0.30 | 86 | 1014.3 |
| 20260904013537 | 79 | 105 | 0.0 | 0.0 | 0.00 | 0.30 | 0.30 | 86 | 1014.5 |
| 20260904012517 | 80 | 292 | 0.0 | 0.0 | 0.00 | 0.30 | 0.30 | 85 | 1014.6 |
| 20260904011517 | 80 | 0.0 | 0.0 | 0.00 | 0.30 | 0.30 | 85 | 1014.6 | |
| 20260904010518 | 80 | 0.0 | 0.0 | 0.00 | 0.30 | 0.30 | 84 | 1014.6 | |
| 20260904005518 | 80 | 322 | 0.0 | 1.0 | 0.00 | 0.30 | 0.30 | 84 | 1014.7 |
| 20260904004518 | 80 | 0.0 | 0.0 | 0.00 | 0.30 | 0.30 | 84 | 1014.5 | |
| 20260904003518 | 80 | 249 | 0.0 | 0.0 | 0.00 | 0.30 | 0.30 | 83 | 1014.3 |
| 20260904002558 | 80 | 0.0 | 0.0 | 0.00 | 0.30 | 0.30 | 83 | 1014.2 | |
| 20260904001519 | 80 | 309 | 0.0 | 0.0 | 0.00 | 0.30 | 0.30 | 83 | 1014.2 |
| 20260904000516 | 81 | 138 | 0.0 | 0.0 | 0.00 | 0.30 | 0.30 | 82 | 1013.9 |
| 20260903235516 | 81 | 0.0 | 0.0 | 0.00 | 0.30 | 0.30 | 81 | 1013.6 | |
| 20260903234516 | 81 | 342 | 0.0 | 1.0 | 0.00 | 0.30 | 0.30 | 81 | 1013.6 |
| 20260903233516 | 82 | 358 | 0.0 | 2.0 | 0.00 | 0.30 | 0.30 | 80 | 1013.7 |
| 20260903232516 | 82 | 203 | 0.0 | 0.0 | 0.00 | 0.30 | 0.30 | 80 | 1013.6 |
| 20260903231516 | 82 | 0.0 | 0.0 | 0.00 | 0.30 | 0.30 | 79 | 1013.6 | |
| 20260903230517 | 83 | 312 | 0.0 | 1.0 | 0.00 | 0.30 | 0.30 | 78 | 1013.6 |
| 20260903225517 | 83 | 0.0 | 0.0 | 0.00 | 0.30 | 0.30 | 77 | 1013.4 | |
| 20260903224517 | 83 | 297 | 0.0 | 1.0 | 0.00 | 0.30 | 0.30 | 77 | 1013.5 |
| 20260903223537 | 84 | 123 | 0.0 | 0.0 | 0.00 | 0.30 | 0.30 | 76 | 1013.5 |
| 20260903222518 | 84 | 0.0 | 0.0 | 0.00 | 0.30 | 0.30 | 76 | 1013.5 | |
| 20260903221517 | 84 | 225 | 0.0 | 1.0 | 0.00 | 0.30 | 0.30 | 75 | 1013.5 |
| 20260903220518 | 85 | 336 | 0.0 | 1.0 | 0.00 | 0.30 | 0.30 | 75 | 1013.5 |
| 20260903215518 | 85 | 182 | 0.0 | 1.0 | 0.00 | 0.30 | 0.30 | 74 | 1013.5 |
| 20260903214518 | 85 | 0.0 | 0.0 | 0.00 | 0.30 | 0.30 | 72 | 1013.5 | |
| 20260903213518 | 85 | 204 | 0.0 | 0.0 | 0.00 | 0.30 | 0.30 | 72 | 1013.5 |
| 20260903212518 | 85 | 212 | 0.0 | 1.0 | 0.00 | 0.30 | 0.30 | 75 | 1013.6 |
| 20260903211519 | 85 | 166 | 0.0 | 1.0 | 0.00 | 0.30 | 0.30 | 76 | 1013.8 |
| 20260903210516 | 85 | 173 | 0.0 | 1.0 | 0.00 | 0.30 | 0.30 | 76 | 1013.7 |
| 20260903205516 | 85 | 177 | 0.0 | 1.0 | 0.00 | 0.30 | 0.30 | 76 | 1013.8 |
| 20260903204516 | 86 | 210 | 0.0 | 2.0 | 0.00 | 0.30 | 0.30 | 74 | 1013.9 |
| 20260903203556 | 86 | 20 | 0.0 | 2.0 | 0.00 | 0.30 | 0.30 | 75 | 1013.9 |
| 20260903202516 | 86 | 187 | 0.0 | 2.0 | 0.00 | 0.30 | 0.30 | 74 | 1014.0 |
| 20260903201516 | 86 | 177 | 0.0 | 2.0 | 0.00 | 0.30 | 0.30 | 73 | 1014.0 |
| 20260903200537 | 86 | 174 | 0.0 | 1.0 | 0.00 | 0.30 | 0.30 | 73 | 1014.1 |
| 20260903195557 | 87 | 180 | 0.0 | 2.0 | 0.00 | 0.32 | 0.30 | 73 | 1014.4 |
| 20260903194517 | 87 | 217 | 0.0 | 1.0 | 0.00 | 0.35 | 0.30 | 72 | 1014.5 |
| 20260903193517 | 88 | 0.0 | 0.0 | 0.00 | 0.35 | 0.30 | 71 | 1014.6 | |
| 20260903192517 | 88 | 214 | 0.0 | 1.0 | 0.00 | 0.35 | 0.30 | 70 | 1014.7 |
| 20260903191517 | 89 | 213 | 0.0 | 1.0 | 0.00 | 0.35 | 0.30 | 69 | 1014.9 |
| 20260903190518 | 89 | 347 | 0.0 | 1.0 | 0.00 | 0.35 | 0.30 | 68 | 1015.0 |
| 20260903185518 | 89 | 308 | 0.0 | 1.0 | 0.00 | 0.35 | 0.30 | 69 | 1015.0 |
| 20260903184518 | 88 | 291 | 0.0 | 1.0 | 0.00 | 0.35 | 0.30 | 71 | 1014.9 |
| 20260903183518 | 88 | 263 | 0.0 | 1.0 | 0.00 | 0.35 | 0.30 | 71 | 1015.1 |
| 20260903182518 | 88 | 208 | 0.0 | 1.0 | 0.00 | 0.35 | 0.30 | 70 | 1015.2 |
| 20260903181539 | 88 | 255 | 0.0 | 1.0 | 0.00 | 0.35 | 0.30 | 71 | 1015.5 |
| 20260903180518 | 88 | 213 | 0.0 | 1.0 | 0.00 | 0.35 | 0.30 | 71 | 1015.4 |
| 20260903175516 | 88 | 86 | 0.0 | 0.0 | 0.00 | 0.35 | 0.30 | 71 | 1015.4 |
| 20260903174516 | 88 | 234 | 0.0 | 1.0 | 0.00 | 0.35 | 0.30 | 71 | 1015.7 |
| 20260903173556 | 88 | 34 | 0.0 | 1.0 | 0.00 | 0.35 | 0.30 | 71 | 1015.8 |
| 20260903172516 | 88 | 288 | 0.0 | 1.0 | 0.00 | 0.35 | 0.30 | 70 | 1016.0 |
| 20260903171516 | 89 | 233 | 0.0 | 2.0 | 0.00 | 0.35 | 0.30 | 69 | 1016.2 |
| 20260903170517 | 88 | 272 | 0.0 | 2.0 | 0.00 | 0.35 | 0.30 | 70 | 1016.3 |
| 20260903165517 | 87 | 310 | 0.0 | 1.0 | 0.00 | 0.35 | 0.30 | 72 | 1016.4 |
| 20260903164517 | 85 | 191 | 0.0 | 1.0 | 0.00 | 0.35 | 0.30 | 75 | 1016.4 |
| 20260903163517 | 85 | 198 | 0.0 | 2.0 | 0.00 | 0.35 | 0.30 | 76 | 1016.4 |
| 20260903162517 | 85 | 188 | 0.0 | 2.0 | 0.00 | 0.35 | 0.30 | 74 | 1016.5 |
| 20260903161517 | 85 | 205 | 0.0 | 2.0 | 0.00 | 0.35 | 0.30 | 75 | 1016.4 |
| 20260903160558 | 84 | 193 | 0.0 | 2.0 | 0.00 | 0.35 | 0.30 | 75 | 1016.5 |
| 20260903155518 | 84 | 191 | 1.0 | 3.0 | 0.00 | 0.35 | 0.30 | 76 | 1016.4 |
| 20260903154518 | 83 | 201 | 1.0 | 3.0 | 0.00 | 0.35 | 0.30 | 77 | 1016.1 |
| 20260903153518 | 82 | 203 | 1.0 | 3.0 | 0.00 | 0.35 | 0.30 | 80 | 1016.1 |
| 20260903152518 | 82 | 187 | 1.0 | 3.0 | 0.00 | 0.35 | 0.30 | 80 | 1016.0 |
| 20260903151516 | 82 | 192 | 1.0 | 4.0 | 0.00 | 0.35 | 0.30 | 79 | 1015.8 |
| 20260903150519 | 81 | 189 | 2.0 | 4.0 | 0.00 | 0.35 | 0.30 | 80 | 1015.7 |
| 20260903145516 | 81 | 197 | 1.0 | 4.0 | 0.00 | 0.35 | 0.30 | 81 | 1015.9 |
| 20260903144516 | 81 | 203 | 1.0 | 3.0 | 0.00 | 0.35 | 0.30 | 81 | 1015.9 |
| 20260903143517 | 80 | 62 | 1.0 | 3.0 | 0.00 | 0.35 | 0.30 | 82 | 1016.0 |
| 20260903142516 | 78 | 63 | 1.0 | 3.0 | 0.00 | 0.35 | 0.30 | 86 | 1016.0 |
| 20260903141529 | 76 | 54 | 1.0 | 3.0 | 0.00 | 0.35 | 0.30 | 89 | 1016.2 |
| 20260903140530 | 76 | 59 | 1.0 | 2.0 | 0.00 | 0.35 | 0.30 | 89 | 1016.4 |
| 20260903135529 | 76 | 78 | 1.0 | 2.0 | 0.00 | 0.35 | 0.30 | 90 | 1015.5 |
| 20260903134529 | 75 | 72 | 1.0 | 2.0 | 0.00 | 0.35 | 0.30 | 91 | 1015.9 |
| 20260903133529 | 75 | 66 | 1.0 | 2.0 | 0.00 | 0.35 | 0.30 | 92 | 1016.2 |
| 20260903132529 | 75 | 63 | 1.0 | 2.0 | 0.00 | 0.35 | 0.30 | 92 | 1016.5 |
| 20260903131550 | 75 | 65 | 1.0 | 2.0 | 0.00 | 0.35 | 0.30 | 92 | 1016.8 |
| 20260903130550 | 75 | 80 | 1.0 | 3.0 | 0.00 | 0.35 | 0.30 | 93 | 1016.8 |
| 20260903125550 | 75 | 55 | 1.0 | 2.0 | 0.00 | 0.35 | 0.30 | 93 | 1017.0 |
| 20260903124530 | 76 | 56 | 1.0 | 2.0 | 0.00 | 0.35 | 0.30 | 93 | 1017.6 |
| 20260903123530 | 75 | 49 | 1.0 | 2.0 | 0.00 | 0.35 | 0.30 | 93 | 1018.1 |
| 20260903122515 | 75 | 36 | 1.0 | 2.0 | 0.00 | 0.35 | 0.30 | 94 | 1018.3 |
| 20260903121516 | 74 | 39 | 1.0 | 2.0 | 0.00 | 0.35 | 0.30 | 93 | 1018.3 |
| 20260903120516 | 74 | 38 | 1.0 | 2.0 | 0.00 | 0.35 | 0.30 | 93 | 1018.3 |
| 20260903115516 | 74 | 44 | 1.0 | 2.0 | 0.00 | 0.35 | 0.30 | 93 | 1018.4 |
| 20260903114516 | 74 | 39 | 1.0 | 2.0 | 0.00 | 0.35 | 0.30 | 93 | 1018.3 |
| 20260903113516 | 74 | 44 | 2.0 | 2.0 | 0.01 | 0.35 | 0.30 | 93 | 1018.2 |
| 20260903112517 | 74 | 41 | 2.0 | 3.0 | 0.19 | 0.35 | 0.30 | 93 | 1018.3 |
| 20260903111537 | 73 | 45 | 2.0 | 3.0 | 0.21 | 0.35 | 0.30 | 93 | 1018.1 |
| 20260903110538 | 74 | 45 | 2.0 | 3.0 | 0.21 | 0.35 | 0.30 | 93 | 1018.0 |
| 20260903105517 | 74 | 50 | 2.0 | 4.0 | 0.21 | 0.35 | 0.30 | 93 | 1018.0 |
| 20260903104517 | 74 | 49 | 2.0 | 3.0 | 0.21 | 0.35 | 0.30 | 93 | 1018.2 |
| 20260903103517 | 74 | 51 | 2.0 | 3.0 | 0.21 | 0.35 | 0.29 | 93 | 1018.1 |
| 20260903102517 | 74 | 49 | 1.0 | 2.0 | 0.02 | 0.16 | 0.11 | 93 | 1018.8 |
| 20260903101518 | 74 | 60 | 1.0 | 2.0 | 0.00 | 0.14 | 0.08 | 93 | 1018.5 |
| 20260903100518 | 74 | 41 | 1.0 | 2.0 | 0.00 | 0.14 | 0.08 | 93 | 1017.5 |
| 20260903095518 | 74 | 39 | 1.0 | 2.0 | 0.00 | 0.14 | 0.08 | 93 | 1017.5 |
| 20260903094518 | 74 | 45 | 2.0 | 2.0 | 0.00 | 0.14 | 0.08 | 93 | 1017.2 |
| 20260903093519 | 74 | 46 | 1.0 | 2.0 | 0.00 | 0.14 | 0.08 | 93 | 1017.3 |
| 20260903092519 | 74 | 42 | 1.0 | 2.0 | 0.00 | 0.14 | 0.08 | 93 | 1017.2 |
| 20260903091519 | 74 | 45 | 2.0 | 3.0 | 0.00 | 0.14 | 0.08 | 93 | 1017.1 |
| 20260903090519 | 74 | 48 | 2.0 | 3.0 | 0.04 | 0.14 | 0.08 | 93 | 1017.2 |
| 20260903085539 | 74 | 45 | 1.0 | 2.0 | 0.08 | 0.14 | 0.08 | 93 | 1017.4 |
| 20260903084519 | 74 | 44 | 2.0 | 3.0 | 0.08 | 0.14 | 0.08 | 93 | 1017.2 |
| 20260903083520 | 75 | 48 | 2.0 | 3.0 | 0.08 | 0.14 | 0.08 | 93 | 1017.3 |
| 20260903082520 | 75 | 47 | 2.0 | 2.0 | 0.08 | 0.14 | 0.08 | 93 | 1017.4 |
| 20260903081520 | 75 | 42 | 1.0 | 2.0 | 0.08 | 0.14 | 0.08 | 93 | 1017.2 |
| 20260903080520 | 75 | 49 | 2.0 | 3.0 | 0.04 | 0.11 | 0.05 | 93 | 1017.4 |
| 20260903075520 | 75 | 41 | 1.0 | 3.0 | 0.00 | 0.07 | 0.01 | 93 | 1017.9 |
| 20260903074520 | 75 | 45 | 1.0 | 2.0 | 0.00 | 0.07 | 0.01 | 93 | 1018.2 |
| 20260903073541 | 75 | 48 | 1.0 | 2.0 | 0.00 | 0.07 | 0.01 | 93 | 1018.1 |
| 20260903072521 | 75 | 40 | 1.0 | 2.0 | 0.00 | 0.07 | 0.01 | 93 | 1017.6 |